Weather in Maleta

Russia / Zabaykalsky Krai     50°50′16″N   108°25′01″E
temp.,
°C
wind,
m/s
gust,
m/s
humid.,
%
clouds,
%
prec.,
mm/h
press.,
hPa
HPBL,
m
12 may, wed
wed1200:00+1sw22885 0.0 101622
03:000sw22925 0.0 101619
06:000ssw22920 0.0 101620
09:00+7wsw25585 0.0 1013470
12:00+12w473550 0.0 10102106
15:00+14w5730100 0.0 10082807
18:00+14wnw372949 0.0 10072559
21:00+8n255791 0.0 1009109
13 may, thu
thu1300:00+5n1285100 0.8 1012187
03:00+2sw2597100 4.4 1014282
06:00+1wsw1399100 2.6 1014175
09:00+2wsw1293100 3.6 1014346
12:00+6w3569100 0.4 10121346
15:00+8wnw4638100 0.8 10112481
18:00+8nw693299 0.0 10113086
21:00+4nw374317 0.0 1013236
14 may, fri
fri1400:00−1sw22590 0.0 101615
03:00−2sw22681 0.0 101829
06:00−3wsw22721 0.0 101822
09:00+4wnw36505 0.0 1017955
12:00+9wnw453655 0.0 10151848
15:00+12wnw442928 0.0 10132210
18:00+12wnw44275 0.0 10122296
21:00+7wsw22460 0.0 101411
15 may, sat
sat1500:00+3s22570 0.0 101826
03:00+1s23560 0.0 101832
06:000s23640 0.0 101845
09:00+9ssw26355 0.0 1016418
12:00+15w56235 0.0 10131735
15:00+17w5724100 0.0 10122669
18:00+15nw57337 0.0 10121719
21:00+10nw3853100 0.0 1014247
16 may, sun
sun1600:00+6sw116932 0.0 101810
03:00+5sw227258 0.0 101931
06:00+4w2107522 0.0 1020329
09:00+9wnw6106577 0.0 10191148
12:00+12w5957100 0.1 10181546
15:00+17w493555 0.1 10132355
18:00+19wsw583164 0.0 10112371
21:00+14ssw22485 0.0 101025